Regional Weather Roundup
Issued by NWS

Home | Current Version | Previous Version | Graphics & Text | Print | Product List | Glossary On
Versions: 1 2 3 4 5 6 7 8 9 10 11 12 13 14 15 16 17 18 19 20 21 22 23 24 25 26 27 28 29 30 31 32 33 34 35 36 37 38 39 40 41 42 43 44 45 46 47 48 49 50
000
ASUS43 KBIS 221710
RWRND

NORTH DAKOTA REGIONAL WEATHER ROUNDUP
NATIONAL WEATHER SERVICE BISMARCK ND
1200 PM CDT FRI MAY 22 2015

NOTE: "FAIR" INDICATES FEW OR NO CLOUDS BELOW 12,000 FEET WITH NO
SIGNIFICANT WEATHER AND/OR OBSTRUCTIONS TO VISIBILITY.


NDZ001>003-009>011-017-221800-
NORTHWEST NORTH DAKOTA

CITY           SKY/WX    TMP DP  RH WIND       PRES   REMARKS
WILLISTON      SUNNY     72  32  23 SE13      30.11F
MINOT          SUNNY     73  34  23 S12       30.13S
MINOT AFB      SUNNY     76  35  23 SE12      30.11F HAZE
$$

NDZ018>021-031>035-040>046-221800-
SOUTHWEST NORTH DAKOTA

CITY           SKY/WX    TMP DP  RH WIND       PRES   REMARKS
BISMARCK       MOSUNNY   72  38  29 VRB5      30.16S
DICKINSON      SUNNY     69  33  26 SE18G32   30.11S
GARRISON         N/A     71  29  21 SE7       30.14F
HETTINGER ARPT MOSUNNY   67  36  31 SE23G32   30.12F
$$

NDZ004>008-012>016-024-026-027-054-221800-
NORTHEAST NORTH DAKOTA

CITY           SKY/WX    TMP DP  RH WIND       PRES   REMARKS
GRAND FORKS    SUNNY     71  38  29 SW8       30.16S
GRND FRKS AFB  SUNNY     72  38  29 SW8       30.16F
DEVILS LAKE    SUNNY     70  37  30 SW8       30.16S
$$

NDZ022-023-025-028>030-036>039-047>053-221800-
SOUTHEAST NORTH DAKOTA

CITY           SKY/WX    TMP DP  RH WIND       PRES   REMARKS
FARGO          SUNNY     69  37  30 CALM      30.19S
JAMESTOWN      SUNNY     69  40  34 S8        30.18R
$$



USA.gov is the U.S. government's official web portal to all federal, state and local government web resources and services.